FW3821 Weather Reports


Display with metric or nautical units.
time (UTC)temp
F
wind
direction
speed
MPH
gust
MPH
rain 1hr
in
rain 24hr
in
rain mn
in
humidity
%
barometer
mb
20260510160010 62 86 3.0 8.0 0.00 0.28 0.00 77 1013.2
20260510154510 62 63 1.0 4.0 0.00 0.33 0.00 78 1013.2
20260510153010 63 89 2.0 8.0 0.00 0.33 0.00 75 1013.3
20260510151506 63 195 1.0 6.0 0.00 0.33 0.00 74 1013.4
20260510150006 61 96 2.0 5.0 0.00 0.33 0.00 76 1013.4
20260510144620 60 325 0.0 7.0 0.00 0.38 0.00 79 1013.2
20260510143108 59 358 1.0 8.0 0.00 0.38 0.00 77 1013.3
20260510141600 59 93 0.0 4.0 0.00 0.38 0.00 82 1013.4
20260510140055 57 60 1.0 5.0 0.00 0.38 0.00 85 1013.4
20260510134552 55 81 2.0 6.0 0.00 0.41 0.00 88 1013.4
20260510133045 53 61 1.0 3.0 0.00 0.41 0.00 93 1013.5
20260510131544 51 103 1.0 3.0 0.00 0.41 0.00 93 1013.6
20260510130039 51 75 0.0 1.0 0.00 0.41 0.00 95 1013.6
20260510124539 50 126 0.0 2.0 0.00 0.44 0.00 95 1013.4
20260510123036 49 358 0.0 1.0 0.00 0.44 0.00 96 1013.3
20260510121533 49 278 0.0 2.0 0.00 0.44 0.00 96 1013.3
20260510120035 49 90 0.0 1.0 0.00 0.44 0.00 96 1013.5
20260510114533 49 39 0.0 1.0 0.00 0.47 0.00 96 1013.3
20260510113030 48 95 0.0 2.0 0.00 0.47 0.00 96 1013.4
20260510111530 48 153 0.0 5.0 0.00 0.47 0.00 96 1013.1
20260510110029 48 34 0.0 2.0 0.00 0.47 0.00 96 1013.0
20260510104528 48 76 0.0 3.0 0.00 0.56 0.00 96 1012.8
20260510103027 47 110 1.0 2.0 0.00 0.56 0.00 96 1012.6
20260510101523 47 103 0.0 1.0 0.00 0.56 0.00 96 1012.7
20260510100031 47 118 0.0 2.0 0.00 0.56 0.00 96 1012.3
20260510094522 47 34 0.0 1.0 0.00 0.59 0.00 96 1012.1
20260510093019 47 122 0.0 2.0 0.00 0.59 0.00 96 1011.5
20260510091520 47 130 1.0 4.0 0.00 0.59 0.00 96 1011.7
20260510090022 47 152 0.0 3.0 0.00 0.59 0.00 96 1011.7
20260510084517 47 106 1.0 5.0 0.00 0.59 0.00 96 1012.0
20260510083021 47 48 0.0 2.0 0.00 0.59 0.00 96 1012.1
20260510081515 47 65 0.0 2.0 0.00 0.59 0.00 96 1012.2
20260510080026 47 231 0.0 4.0 0.00 0.59 0.00 96 1012.3
20260510074513 47 81 0.0 2.0 0.00 0.59 0.00 96 1012.3
20260510073012 47 59 0.0 2.0 0.00 0.59 0.00 96 1012.2
20260510071512 47 1 0.0 3.0 0.00 0.59 0.00 96 1012.0
20260510070014 47 120 0.0 3.0 0.00 0.59 0.00 96 1011.7
20260510064511 47 140 0.0 4.0 0.00 0.59 0.00 96 1011.7
20260510063008 47 110 0.0 3.0 0.00 0.59 0.00 96 1011.7
20260510061506 48 108 0.0 2.0 0.00 0.59 0.00 96 1011.9
20260510060006 48 335 0.0 2.0 0.00 0.59 0.00 96 1012.1
20260510054504 48 102 0.0 1.0 0.00 0.59 0.00 97 1012.1
20260510053005 47 157 0.0 1.0 0.00 0.59 0.00 96 1012.2
20260510051502 48 48 0.0 3.0 0.00 0.59 0.00 96 1012.1
20260510050002 47 11 1.0 2.0 0.00 0.59 0.00 96 1012.2
20260510044601 47 118 0.0 1.0 0.00 0.59 0.00 96 1012.0
20260510043110 48 126 0.0 1.0 0.00 0.59 0.00 96 1012.2
20260510041558 48 126 0.0 2.0 0.00 0.59 0.00 96 1012.3
20260510034558 48 37 0.0 1.0 0.00 0.59 0.59 96 1012.2
20260510033123 48 338 0.0 3.0 0.00 0.59 0.59 96 1012.3
20260510031607 48 6 0.0 3.0 0.00 0.59 0.59 96 1012.2
20260510030057 47 73 0.0 2.0 0.00 0.59 0.59 96 1012.2
20260510024552 47 17 0.0 2.0 0.00 0.59 0.59 96 1012.3
20260510023051 47 120 0.0 3.0 0.00 0.59 0.59 96 1012.2
20260510021550 47 41 0.0 3.0 0.00 0.59 0.59 96 1012.1
20260510020051 47 89 0.0 2.0 0.00 0.59 0.59 96 1012.5
20260510014550 47 89 0.0 2.0 0.00 0.59 0.59 96 1012.8
20260510013048 47 354 1.0 3.0 0.00 0.59 0.59 96 1012.9
20260510011548 47 31 1.0 3.0 0.00 0.59 0.59 96 1012.6
20260510010047 47 71 0.0 3.0 0.00 0.59 0.59 96 1012.3
20260510004546 47 24 1.0 4.0 0.00 0.59 0.59 96 1012.0
20260510003045 47 359 0.0 2.0 0.00 0.59 0.59 96 1011.9
20260510001545 46 70 0.0 5.0 0.00 0.59 0.59 96 1011.7
20260509234555 46 76 0.0 5.0 0.00 0.59 0.59 96 1011.5
20260509233047 46 153 0.0 3.0 0.00 0.59 0.59 96 1011.9
20260509231545 46 133 1.0 4.0 0.00 0.59 0.59 95 1011.6
20260509230042 46 87 0.0 2.0 0.00 0.59 0.59 95 1011.7
20260509224542 47 89 0.0 3.0 0.00 0.59 0.59 95 1011.7
20260509223044 47 48 0.0 3.0 0.00 0.59 0.59 95 1011.7
20260509221544 47 83 0.0 4.0 0.00 0.59 0.59 95 1011.5
20260509220040 47 118 0.0 2.0 0.00 0.59 0.59 95 1011.4
20260509214537 47 117 0.0 1.0 0.02 0.59 0.59 95 1011.6
20260509213039 47 36 0.0 2.0 0.05 0.59 0.59 95 1011.9
20260509211534 46 86 0.0 2.0 0.06 0.59 0.59 95 1011.9
20260509210039 46 93 1.0 3.0 0.07 0.59 0.59 95 1012.1
20260509204535 46 70 0.0 3.0 0.06 0.56 0.56 95 1012.5
20260509203029 46 84 0.0 2.0 0.04 0.54 0.54 95 1012.5
20260509201530 46 75 0.0 2.0 0.04 0.53 0.53 95 1012.6
20260509200025 46 91 0.0 1.0 0.05 0.52 0.52 95 1012.7
20260509194527 45 79 0.0 1.0 0.06 0.51 0.51 95 1012.6
20260509193026 45 88 0.0 2.0 0.06 0.50 0.50 95 1012.6
20260509191525 44 75 0.0 0.0 0.06 0.49 0.49 94 1012.6
20260509190018 44 75 0.0 0.0 0.05 0.47 0.47 94 1012.9
20260509184527 44 75 0.0 0.0 0.04 0.45 0.45 94 1012.9
20260509183015 44 94 0.0 1.0 0.05 0.44 0.44 94 1013.0
20260509181512 43 93 0.0 1.0 0.05 0.43 0.43 94 1013.1
20260509180014 43 99 0.0 1.0 0.06 0.42 0.42 93 1013.2
20260509174511 43 108 0.0 2.0 0.06 0.41 0.41 93 1013.3
20260509173008 43 128 0.0 1.0 0.05 0.39 0.39 93 1013.5
20260509171506 43 17 0.0 2.0 0.06 0.38 0.38 93 1013.7
20260509170005 43 72 0.0 2.0 0.05 0.36 0.36 93 1014.0
20260509164503 43 94 0.0 2.0 0.06 0.35 0.35 93 1014.0
20260509163001 43 98 0.0 1.0 0.06 0.34 0.34 92 1014.1
20260509161604 42 43 0.0 1.0 0.05 0.32 0.32 92 1014.1
20260509161501 43 51 0.0 1.0 0.06 0.32 0.32 92 1014.1